Wind_Speed
62 70 76 79 82 84 86 86 84 82 81 78 76 75 75 75 74 73 72 71 68 66 65 64 62 61 61 61 59 58 55 53 53 53 53 52 48 46
47 54 61 68 74 79 82 84 85 84 83 81 80 76 75 75 74 74 74 74 73 71 69 68 66 64 64 64 62 61 59 58 57 58 56 53 50 50
39 42 46 51 58 66 74 79 82 84 83 83 83 80 77 77 75 74 74 74 74 73 73 72 71 69 68 67 66 64 62 60 56 54 53 52 52 52
39 40 41 43 47 53 61 70 77 81 83 83 85 84 81 79 78 77 75 74 74 74 73 72 71 70 69 67 66 66 64 62 60 60 57 54 55 55
41 42 42 42 43 46 51 58 67 75 79 81 82 85 83 80 78 78 79 77 75 73 72 71 70 70 71 71 70 70 68 66 67 69 65 61 60 59
43 44 44 44 44 45 47 50 55 62 69 73 74 79 82 80 77 75 78 80 78 76 74 72 70 70 71 72 73 74 73 72 71 71 70 68 66 65
43 44 45 46 45 46 48 50 52 55 59 63 64 68 75 76 76 74 74 76 77 77 76 74 70 69 70 71 72 74 74 75 77 77 76 74 73 72
43 43 43 44 44 43 44 45 48 52 56 60 62 64 68 69 70 71 71 74 75 78 77 76 75 73 72 72 71 72 74 76 78 79 79 79 78 78
42 41 40 40 39 38 38 39 43 51 54 53 55 57 60 65 67 67 68 70 71 72 73 74 75 75 76 76 75 74 74 75 76 77 78 78 78 78
40 40 38 36 35 36 38 41 43 50 54 54 56 56 56 56 60 63 64 65 67 68 69 69 69 70 72 73 74 74 74 74 75 75 76 77 77 78
42 41 39 37 38 41 42 42 45 50 54 56 56 55 55 57 58 59 61 60 62 64 65 65 65 66 67 69 70 71 72 73 74 74 75 76 76 77
44 44 43 41 41 43 43 42 44 48 53 54 54 53 53 54 56 58 60 59 58 58 58 59 60 61 62 63 65 68 69 70 71 73 75 76 76 76
45 46 46 46 44 43 43 43 43 45 47 48 49 50 51 52 52 52 53 55 56 56 55 55 56 56 58 58 59 60 62 64 66 68 70 70 70 69
46 46 47 48 48 46 44 44 44 44 44 44 45 46 48 51 53 53 53 54 56 57 57 56 56 56 56 56 57 57 57 57 58 59 59 60 60 61
45 46 46 48 50 50 48 46 44 44 45 46 45 44 46 49 50 52 53 54 55 57 58 58 58 57 57 56 55 55 55 55 55 54 53 54 54 56
43 46 46 47 48 50 50 50 48 46 47 48 48 47 46 47 49 50 52 53 53 52 53 54 55 56 57 57 56 55 53 53 52 53 53 53 54 55
39 43 46 47 47 47 48 50 51 51 50 51 51 50 50 49 49 49 50 51 51 51 49 49 50 53 55 56 56 55 54 53 52 53 53 53 52 51
33 40 44 47 48 49 48 48 49 51 54 56 55 54 53 53 52 51 51 51 51 51 49 48 48 50 53 55 55 54 53 52 51 52 52 53 52 50
25 33 41 46 48 50 50 50 48 48 51 55 58 58 57 56 55 55 55 56 55 53 51 49 48 48 49 50 51 51 50 50 51 52 53 53 53 52
18 23 32 41 47 50 51 51 50 49 49 50 54 58 59 58 57 56 58 59 58 56 53 51 49 49 48 48 48 48 47 48 49 50 52 53 53 52
14 17 22 31 41 48 50 52 52 52 50 49 49 51 54 56 57 57 57 59 58 56 53 51 49 48 47 46 46 45 44 44 45 46 47 48 49 49
12 14 17 21 30 41 48 51 52 53 53 51 49 47 48 50 51 52 53 54 54 52 50 48 47 47 46 45 44 44 43 43 42 42 41 42 43 45
9 10 12 15 20 28 40 48 51 53 54 53 51 49 47 47 47 48 49 49 49 49 47 46 45 45 44 43 42 42 41 40 39 38 37 38 40 41
Wind_Direction
238 239 240 240 242 243 243 243 243 241 237 235 235 236 237 237 238 238 238 237 236 235 234 233 233 234 238 240 241 242 243 242 243 246 248 245 244 244
232 235 237 239 240 242 243 244 244 243 240 237 236 235 237 237 237 238 238 238 237 236 235 235 234 235 237 240 241 241 241 241 244 249 245 238 242 244
227 227 230 234 237 239 240 241 241 242 242 239 237 235 236 237 237 237 237 237 237 237 237 236 236 237 238 240 241 241 240 241 243 243 234 239 244 245
230 228 229 232 235 237 238 239 238 238 238 238 238 237 236 236 237 237 237 237 236 236 236 236 237 237 237 238 239 239 239 238 239 241 243 245 246 244
231 231 232 234 236 236 237 237 237 235 234 234 235 236 236 236 237 238 237 236 235 235 235 236 236 236 236 236 236 237 237 238 239 242 246 247 246 244
232 232 234 235 237 238 238 239 237 235 232 230 231 234 234 233 232 234 236 236 235 234 234 235 236 236 236 236 237 238 238 238 239 241 243 244 245 244
233 234 235 237 240 242 242 241 238 233 228 224 223 227 232 230 229 229 231 233 234 233 233 233 234 235 237 237 236 237 238 239 240 242 244 245 247 248
232 233 236 239 242 245 243 240 234 225 216 214 216 219 225 226 226 227 228 230 231 233 234 234 234 233 233 236 237 237 238 239 241 242 245 246 248 250
229 230 234 238 241 239 233 224 222 214 208 209 213 214 219 222 223 224 226 228 230 231 232 233 233 233 233 234 236 238 239 240 241 242 244 246 248 250
223 224 227 231 230 223 215 212 213 210 206 205 204 206 209 214 218 220 223 225 226 226 227 229 230 232 234 235 237 238 239 240 242 243 244 247 249 251
217 217 218 219 217 212 213 213 210 209 207 206 203 203 206 209 211 213 215 217 221 224 225 228 231 234 236 238 239 240 241 243 244 245 246 247 250 252
215 214 213 212 212 213 214 214 212 210 209 211 211 210 208 208 210 212 214 216 218 220 222 226 229 232 235 238 240 242 243 244 245 247 248 250 252 254
215 214 213 212 211 211 211 213 211 210 210 210 212 213 212 211 212 213 215 216 217 217 219 224 228 231 234 237 240 242 245 246 248 250 252 253 254 255
216 215 215 214 213 211 208 208 209 209 210 209 209 210 211 212 213 215 217 218 218 217 219 223 228 232 235 237 240 242 245 248 249 249 249 250 251 252
218 215 216 215 216 215 213 210 208 209 211 211 211 211 210 210 212 215 217 220 221 221 222 225 229 233 236 238 239 240 243 245 247 247 246 245 245 247
222 218 217 216 216 218 218 216 214 212 212 212 212 213 213 213 213 214 216 219 221 222 224 227 231 234 236 237 237 239 242 244 245 245 245 245 247 248
228 223 220 219 218 217 218 219 218 217 215 214 213 214 215 216 217 218 219 220 221 223 225 228 231 234 235 236 237 239 241 244 245 245 246 247 247 247
234 228 223 221 220 219 218 219 219 218 217 216 216 217 218 219 221 224 226 226 226 227 229 232 235 236 236 237 236 238 240 243 244 246 247 247 247 247
242 235 229 224 222 221 221 220 219 219 219 219 219 219 221 222 224 227 229 230 229 230 232 234 237 238 238 238 238 239 242 244 246 247 247 248 248 249
250 243 235 229 225 223 222 222 221 221 221 221 222 222 222 223 226 228 230 230 229 230 232 234 236 237 237 238 239 241 244 247 249 249 249 248 248 248
261 251 242 235 229 225 224 223 223 222 222 223 224 225 225 226 227 228 227 227 228 228 230 233 235 235 235 236 239 242 247 250 251 250 249 248 245 244
275 261 250 241 233 228 225 223 223 223 223 224 225 225 225 225 225 225 224 224 225 225 227 229 230 231 233 236 240 243 247 250 250 249 246 242 238 237
317 286 262 247 237 230 226 224 223 224 224 225 226 226 225 224 224 223 223 222 223 224 224 226 227 229 232 236 239 242 245 247 246 244 241 238 236 235
Height
5468 5478 5490 5501 5511 5520 5529 5539 5549 5560 5573 5585 5593 5603 5612 5622 5631 5639 5649 5658 5667 5675 5684 5692 5700 5706 5711 5716 5721 5726 5731 5735 5739 5744 5748 5754 5758 5763
5453 5461 5471 5480 5489 5498 5508 5518 5528 5540 5553 5566 5576 5588 5595 5604 5614 5623 5632 5641 5651 5660 5669 5678 5685 5692 5698 5702 5707 5713 5718 5723 5728 5732 5736 5741 5746 5751
5441 5448 5455 5462 5470 5478 5487 5497 5508 5519 5533 5546 5557 5570 5579 5587 5597 5606 5615 5624 5634 5644 5653 5662 5670 5677 5683 5689 5694 5700 5705 5710 5716 5719 5723 5729 5735 5740
5430 5437 5443 5450 5456 5463 5470 5478 5489 5500 5513 5525 5536 5550 5562 5571 5580 5588 5598 5607 5617 5627 5636 5645 5654 5661 5667 5673 5679 5685 5691 5698 5704 5708 5711 5717 5723 5727
5420 5426 5432 5438 5444 5450 5456 5463 5471 5481 5492 5505 5516 5529 5543 5554 5562 5569 5579 5590 5601 5611 5619 5628 5636 5644 5651 5658 5664 5671 5677 5685 5690 5695 5698 5703 5709 5714
5409 5415 5421 5427 5433 5438 5443 5449 5456 5464 5475 5486 5497 5508 5521 5534 5544 5551 5561 5573 5584 5595 5603 5612 5619 5626 5635 5644 5652 5657 5663 5668 5673 5678 5684 5690 5695 5700
5396 5402 5408 5414 5419 5425 5430 5435 5441 5450 5460 5471 5482 5491 5501 5514 5526 5535 5545 5555 5566 5576 5586 5596 5606 5614 5618 5626 5633 5641 5648 5653 5659 5664 5669 5675 5680 5685
5383 5388 5394 5400 5405 5410 5414 5420 5426 5436 5447 5457 5467 5476 5486 5497 5509 5519 5529 5539 5551 5564 5571 5578 5587 5595 5602 5610 5617 5624 5631 5637 5643 5649 5654 5659 5664 5669
5370 5375 5381 5386 5391 5396 5401 5407 5414 5424 5435 5445 5453 5462 5472 5483 5496 5507 5515 5522 5534 5545 5552 5560 5569 5578 5586 5593 5599 5607 5614 5621 5626 5632 5637 5642 5647 5652
5358 5364 5370 5375 5380 5385 5391 5398 5405 5414 5424 5433 5442 5451 5461 5470 5481 5493 5500 5509 5519 5527 5535 5544 5552 5561 5569 5576 5583 5590 5597 5604 5610 5615 5621 5626 5631 5635
5346 5353 5360 5365 5370 5376 5383 5389 5396 5403 5412 5422 5431 5442 5452 5462 5470 5479 5487 5494 5503 5512 5521 5530 5538 5546 5554 5561 5567 5574 5581 5587 5593 5598 5604 5610 5614 5618
5335 5343 5350 5356 5362 5369 5375 5382 5388 5394 5402 5411 5420 5430 5440 5449 5458 5466 5475 5483 5491 5500 5508 5516 5524 5532 5539 5546 5553 5560 5566 5572 5577 5583 5589 5594 5598 5602
5323 5331 5339 5346 5353 5360 5367 5374 5380 5386 5394 5402 5410 5420 5429 5438 5447 5455 5464 5472 5481 5489 5498 5505 5512 5520 5527 5534 5539 5545 5551 5557 5563 5568 5574 5579 5583 5587
5311 5319 5327 5335 5343 5350 5357 5365 5372 5379 5386 5394 5402 5411 5419 5428 5437 5445 5453 5461 5469 5478 5487 5494 5501 5508 5515 5521 5527 5533 5538 5543 5548 5553 5559 5564 5568 5572
5299 5308 5316 5324 5332 5340 5348 5355 5363 5371 5379 5386 5394 5402 5410 5418 5426 5435 5443 5450 5458 5466 5474 5482 5489 5495 5502 5509 5515 5521 5526 5531 5536 5541 5546 5550 5554 5558
5288 5297 5306 5313 5321 5329 5337 5346 5354 5362 5370 5378 5386 5394 5402 5409 5417 5425 5433 5441 5448 5455 5463 5470 5477 5483 5490 5497 5503 5509 5514 5520 5524 5529 5533 5537 5541 5544
5279 5287 5296 5304 5311 5319 5327 5335 5343 5352 5360 5368 5376 5384 5392 5400 5408 5415 5423 5431 5438 5445 5452 5459 5465 5472 5478 5484 5491 5497 5502 5508 5512 5516 5520 5524 5528 5531
5271 5277 5284 5292 5300 5308 5316 5324 5332 5340 5349 5357 5366 5374 5382 5389 5397 5405 5412 5420 5427 5434 5441 5447 5454 5460 5467 5473 5479 5485 5490 5496 5500 5504 5508 5511 5515 5519
5264 5269 5274 5281 5289 5297 5305 5314 5322 5329 5337 5346 5354 5362 5370 5378 5386 5393 5401 5408 5416 5423 5430 5436 5443 5449 5456 5462 5468 5473 5479 5484 5487 5491 5494 5498 5501 5505
5259 5262 5266 5272 5279 5286 5294 5303 5311 5319 5327 5334 5342 5350 5358 5366 5374 5381 5388 5396 5403 5411 5418 5425 5432 5439 5445 5451 5456 5462 5467 5470 5473 5477 5480 5484 5488 5492
5254 5256 5259 5263 5269 5276 5284 5292 5300 5308 5316 5324 5331 5338 5346 5353 5361 5368 5375 5383 5391 5399 5407 5414 5421 5427 5433 5440 5445 5450 5455 5458 5461 5463 5467 5471 5475 5480
5250 5251 5253 5255 5259 5265 5273 5281 5289 5297 5305 5313 5320 5327 5334 5341 5348 5356 5364 5372 5380 5388 5396 5403 5409 5416 5423 5429 5435 5440 5444 5447 5449 5452 5455 5460 5464 5469
5248 5248 5248 5250 5252 5255 5262 5269 5277 5286 5294 5302 5309 5317 5324 5331 5338 5346 5354 5362 5370 5377 5385 5392 5398 5405 5412 5418 5424 5429 5433 5437 5439 5442 5446 5450 5455 5459